Location: ???? ??????? ????
(31.2176°N, 31.6797°E)
Time: 18:50:13
(UTC+00:00)

YAOGAN 1 - Pass Details

Date: 29 October 2020
Orbit: 618 x 620 km, 97.9° (Epoch: 30 November)

Event Time Altitude Azimuth Distance (km) Brightness Sun altitude
Rises 17:09:34 0° 183° (S) 2,880 6.0 -26.7°
Reaches altitude 10° 17:11:50 10° 191° (S) 1,978 5.2 -27.2°
Maximum altitude 17:15:53 40° 261° (W) 919 3.8 -28.1°
Drops below altitude 10° 17:19:58 10° 331° (NNW) 1,990 5.5 -29.0°
Sets 17:22:16 0° 339° (NNW) 2,899 6.3 -29.5°
